Regional Weather Roundup
Issued by NWS Sioux Falls, SD

Home | Current Version | Previous Version | Graphics & Text | Print | Product List | Glossary Off
Versions: 1 2 3 4 5 6 7 8 9 10 11 12 13 14 15 16 17 18 19 20 21 22 23 24 25 26 27 28 29 30 31 32 33 34 35 36 37 38 39 40 41 42 43 44 45 46 47 48 49 50

000
ASUS43 KFSD 200602
RWRFSD

WEATHER ROUNDUP FOR SE SOUTH DAKOTA/SW MINNESOTA/NW IOWA
NATIONAL WEATHER SERVICE SIOUX FALLS SD
1200 AM CST SAT DEC 20 2014

NOTE: "FAIR" INDICATES FEW OR NO CLOUDS BELOW 12,000 FEET WITH NO
SIGNIFICANT WEATHER AND OR OBSTRUCTIONS TO VISIBILITY.


SDZ038>040-050-052>070-200700-
SOUTHEAST SOUTH DAKOTA

CITY           SKY/WX    TMP DP  RH WIND       PRES   REMARKS
CHAMBERLAIN    NOT AVBL
HURON          CLOUDY    28  26  92 S8        30.02F FOG     WCI  20
6HR MIN TEMP:  28; 6HR MAX TEMP:  30;

MADISON        CLOUDY    28  28 100 S14G20    30.03S WCI  17
MITCHELL       CLOUDY    29  28  96 S9        30.05S FOG     WCI  20
6HR MIN TEMP:  29; 6HR MAX TEMP:  30;

SIOUX FALLS    CLOUDY    31  28  89 S10       30.06F WCI  22
6HR MIN TEMP:  31; 6HR MAX TEMP:  31;

WINNER         FAIR      27  20  75 SW6       29.98R WCI  20
YANKTON        CLOUDY    32  28  86 S3        30.07S
$$

MNZ071-072-080-081-089-090-097-098-200700-
SOUTHWEST MINNESOTA

CITY           SKY/WX    TMP DP  RH WIND       PRES   REMARKS
FAIRMONT       CLOUDY    30  27  86 S15       30.13S WCI  19
JACKSON        CLOUDY    32  30  93 S10G17    30.11S WCI  24
LUVERNE        CLOUDY    32  30  93 S7        30.09S FOG     WCI  26
MARSHALL       CLOUDY    30  27  86 S15       30.08S WCI  19
6HR MIN TEMP:  30; 6HR MAX TEMP:  30;

MONTEVIDEO     CLOUDY    30  30 100 SW9       30.08R FOG     WCI  22
PIPESTONE      CLOUDY    30  28  93 S6        30.05S FOG     WCI  24
REDWOOD FALLS  CLOUDY    32  28  85 S13       30.10F FOG     WCI  22
TRACY          CLOUDY    32  29  91 SW14      30.09R WCI  22
WINDOM         CLOUDY    30  28  93 S8        30.10S FOG     WCI  23
WORTHINGTON    CLOUDY    28  27  93 S14       30.09S WCI  17
$$

IAZ001>003-012>014-020>022-031-032-NEZ013-014-SDZ071-200700-
NORTHWEST IOWA

CITY           SKY/WX    TMP DP  RH WIND       PRES   REMARKS
DENISON        CLOUDY    28  30 100 S8        30.12F FOG     WCI  20
ESTHERVILLE    CLOUDY    30  29  96 S10       30.12S FOG     WCI  21
SIOUX CITY     CLOUDY    33  29  85 SE10      30.11S WCI  25
6HR MIN TEMP:  33; 6HR MAX TEMP:  34;

SPENCER        CLOUDY    31  28  89 S12       30.12F FOG     WCI  22
6HR MIN TEMP:  31; 6HR MAX TEMP:  33;

$$

ABBREVIATIONS USED IN REMARKS
   TC - TEMPERATURE IN CELSIUS
  WCI - WIND CHILL INDEX
   HX - HEAT INDEX
  VSB - VISIBILITY



USA.gov is the U.S. government's official web portal to all federal, state and local government web resources and services.